Presure
230 176 205 134 132 133 140 240 219 216 207 209 216 214 211 209 200 199 195 186 190 190 192 188 180 192 190 172 166 182 181 183 143 187 182 152 175 166 175 180 176 161 180 171
133 131 126 129 139 196 220 207 210 206 214 224 219 212 199 196 196 191 190 188 193 192 190 185 182 188 200 167 178 174 177 184 175 128 173 164 177 173 176 176 176 184 164 149
133 130 186 145 220 221 216 213 202 210 197 212 204 201 208 209 207 202 200 199 198 197 200 189 193 193 126 116 166 97 195 178 189 182 181 173 171 169 179 168 164 168 126 156
141 224 190 214 216 210 211 205 199 191 221 212 207 205 211 216 209 206 204 200 198 196 181 175 187 188 116 156 96 100 189 165 183 188 187 168 170 179 168 178 179 167 163 168
240 218 219 220 217 212 205 210 197 208 220 210 203 210 203 200 195 193 190 191 191 189 189 186 188 174 184 152 96 179 181 182 178 158 166 176 138 131 130 181 146 194 201 206
231 227 231 217 216 211 207 197 196 216 201 209 212 205 190 187 181 179 174 185 195 197 193 134 183 179 163 181 175 174 164 150 123 127 183 182 158 188 192 202 207 212 204 215
237 231 233 226 213 216 212 202 186 187 196 208 194 189 183 184 194 198 200 193 187 183 185 180 174 179 174 174 177 143 112 116 150 188 156 196 198 204 210 215 217 213 215 196
253 240 236 234 221 217 215 199 200 181 182 185 197 195 196 201 195 187 180 172 167 179 168 135 167 179 150 132 180 113 178 150 192 199 200 204 153 203 219 207 194 202 189 236
255 240 240 247 234 222 215 187 187 184 185 189 188 200 200 154 176 168 160 179 167 168 175 185 179 170 179 173 152 179 189 143 194 205 204 202 196 206 226 227 143 231 231 235
246 262 239 230 233 233 189 187 186 189 184 186 194 190 172 159 170 172 180 184 180 180 178 179 169 163 144 166 144 199 195 203 208 208 199 208 210 221 217 206 226 239 249 261
211 200 198 198 197 192 191 191 191 189 170 195 173 178 176 175 172 178 179 180 170 169 174 169 176 181 194 192 203 151 123 199 203 210 208 204 206 227 221 228 238 253 274 275
199 203 207 205 199 198 193 194 193 186 190 173 180 173 173 171 174 178 183 173 171 163 164 182 193 182 122 201 206 205 211 212 205 199 215 219 225 224 231 262 266 288 278 277
188 187 185 195 197 200 189 186 172 180 183 161 180 179 180 172 176 175 168 170 168 169 181 196 197 205 209 200 199 200 198 207 211 215 211 219 217 229 246 275 315 297 293 331
205 204 201 184 189 178 186 193 198 166 174 166 177 170 171 172 173 173 170 168 150 180 188 198 195 195 202 205 204 202 213 211 214 211 226 218 231 241 297 315 300 309 324 280
182 181 188 185 182 187 179 158 178 163 185 186 176 173 175 177 175 168 171 180 157 176 198 195 203 200 198 127 135 195 160 170 218 217 213 226 250 323 315 318 320 315 287 360
184 184 186 183 187 179 182 193 119 186 188 179 184 178 177 179 170 180 120 157 197 197 197 205 201 124 131 123 131 137 216 227 221 225 241 298 319 314 315 323 307 329 444 415
185 185 182 184 183 187 190 175 182 136 182 184 187 179 180 162 142 183 198 194 192 200 202 202 190 203 201 210 212 214 228 225 230 252 294 320 321 322 319 292 366 420 401 406
191 202 190 188 195 189 175 186 191 169 176 179 177 172 112 172 132 196 194 196 199 190 202 189 205 210 208 212 205 238 223 240 269 307 330 328 320 285 301 421 426 402 399 399
210 207 172 178 178 187 190 187 177 185 185 184 180 109 88 190 191 195 192 197 195 200 190 204 203 215 220 219 229 226 255 294 313 334 315 274 278 354 430 414 413 402 393 384
179 187 185 188 185 193 190 184 192 184 178 187 188 118 97 195 195 190 192 198 203 203 205 197 219 222 240 224 249 263 310 319 341 274 283 308 430 431 416 398 400 392 379 366
192 188 187 186 192 189 190 179 109 196 183 89 160 192 196 196 177 197 203 204 205 208 228 219 217 233 250 277 296 316 319 286 274 282 324 442 424 407 403 394 383 373 363 353
177 184 191 188 186 183 172 184 165 191 197 199 190 160 197 193 202 201 203 213 207 218 212 227 248 286 315 312 310 287 269 280 296 341 437 418 402 394 392 376 365 357 362 364
184 192 176 190 191 190 194 197 197 192 192 190 188 185 202 177 106 174 211 226 217 217 241 251 271 310 304 308 255 283 280 321 438 431 415 397 394 387 372 354 353 357 341 360
184 192 193 180 88 151 172 193 187 187 180 194 200 203 207 211 211 223 223 218 225 242 254 268 310 321 313 306 269 304 353 435 415 405 396 390 383 369 349 348 346 337 351 441
146 186 193 186 200 198 199 190 99 192 195 200 197 212 207 210 221 215 219 257 292 330 284 320 314 257 262 293 325 437 426 407 390 392 392 381 363 349 340 339 336 346 411 445
200 195 198 114 196 196 196 190 185 193 200 195 203 204 197 223 212 235 245 258 317 290 276 309 291 280 311 412 427 413 398 384 381 378 380 365 357 335 337 330 333 371 439 423
Wind_Speed
19 34 28 48 51 55 56 19 27 29 31 33 31 33 34 34 36 35 37 44 42 43 44 42 42 46 47 45 50 47 45 49 53 56 55 59 59 57 59 64 64 58 65 56
44 45 48 51 53 35 26 25 26 28 30 26 28 32 36 37 39 41 43 45 42 46 46 45 47 48 50 48 51 50 53 57 55 51 55 58 61 61 63 64 67 77 69 55
47 48 34 50 25 25 23 25 24 28 27 25 29 31 33 35 38 39 40 42 45 47 46 47 47 48 39 36 56 34 60 58 64 63 64 60 64 64 76 69 67 73 42 66
48 24 35 27 25 24 25 24 25 29 27 23 23 27 29 30 30 32 35 38 42 45 47 51 51 53 35 38 30 32 60 55 68 72 74 65 71 79 72 82 85 75 73 80
22 25 28 29 28 27 26 25 21 27 22 21 25 23 28 27 28 32 36 40 42 45 49 50 51 54 52 57 31 65 67 69 72 61 71 79 49 49 49 86 57 97 101 104
22 24 27 31 31 30 24 18 21 23 22 22 22 21 31 31 34 38 41 44 42 42 44 43 51 55 59 59 62 65 65 57 32 33 81 84 64 93 96 100 102 103 95 103
25 25 29 32 34 32 26 19 21 26 25 20 25 26 31 34 33 35 36 34 36 40 45 49 53 55 59 63 65 45 33 35 58 89 60 95 97 99 100 102 102 96 100 91
19 24 26 28 33 35 27 12 15 27 29 32 29 27 32 32 28 31 33 37 42 45 48 54 55 62 58 29 74 30 79 60 93 95 96 97 61 100 97 103 94 95 80 107
16 19 22 23 26 32 29 21 22 26 28 31 35 31 29 23 32 36 41 44 45 49 55 60 62 64 70 70 63 85 86 61 94 96 95 96 99 105 105 107 60 113 112 112
13 13 17 16 21 24 24 24 26 27 28 31 38 40 22 45 40 46 49 53 56 60 64 68 63 64 53 73 65 88 91 93 94 94 98 102 103 111 105 104 115 125 128 126
14 16 17 18 20 23 24 26 28 31 32 32 32 50 39 44 48 53 55 58 58 62 70 69 78 84 86 87 87 62 51 95 98 101 103 101 106 119 114 117 125 133 129 127
17 17 17 19 22 24 26 26 26 29 34 34 38 47 50 49 53 58 61 61 66 65 64 83 85 85 53 90 89 91 94 96 98 99 110 114 120 118 124 134 133 128 121 122
21 24 26 25 25 28 26 23 26 34 36 47 45 50 52 54 59 60 62 66 69 73 82 84 87 87 89 92 95 97 98 102 106 113 111 120 117 130 137 136 119 119 121 121
24 22 25 28 27 35 33 29 30 38 40 45 50 52 57 59 61 64 66 68 64 82 86 86 89 91 95 99 101 102 112 110 115 112 128 121 134 139 130 117 118 118 114 112
24 26 29 31 34 36 40 45 34 37 44 44 51 56 57 63 66 67 72 81 72 76 89 91 93 94 97 55 59 103 76 81 122 124 118 131 142 117 115 114 114 111 112 116
32 33 35 41 36 37 45 44 27 46 49 52 54 60 64 70 69 78 46 63 87 90 93 96 98 55 57 61 65 67 123 127 126 130 136 130 116 114 113 113 109 115 71 73
35 35 37 45 45 47 51 46 49 40 56 58 62 66 71 66 58 81 84 89 93 97 101 102 96 110 107 117 118 122 126 126 131 135 129 116 114 113 110 107 107 76 75 66
39 44 43 46 45 48 53 53 55 52 63 64 69 69 40 68 49 84 88 93 97 96 106 97 112 114 113 117 112 130 124 133 133 124 113 111 107 108 112 83 71 72 66 59
46 41 41 44 46 51 58 56 57 59 65 70 73 36 32 82 85 91 94 97 99 105 96 113 111 124 127 124 128 125 135 131 123 112 109 111 113 114 74 70 64 62 59 55
43 45 48 46 47 52 56 56 59 61 67 73 75 45 32 87 88 91 96 101 106 108 112 99 125 125 128 122 135 140 123 122 115 113 114 114 80 67 65 65 59 57 56 57
49 47 50 50 53 56 58 60 23 68 68 21 61 81 87 91 82 98 106 109 111 109 121 123 120 130 138 136 129 121 120 112 113 114 116 70 66 64 60 59 57 58 59 59
54 51 55 54 59 61 61 65 57 73 77 79 78 68 91 92 102 105 110 118 110 121 117 128 137 133 125 122 118 114 110 112 115 116 67 64 62 60 56 57 58 60 61 60
63 60 55 58 67 67 70 73 76 77 79 83 84 86 100 86 39 87 116 120 120 120 133 137 134 119 118 119 108 112 113 117 71 65 61 59 56 53 54 57 58 59 57 60
68 69 63 58 15 50 65 77 77 79 77 92 97 102 109 113 113 118 120 120 126 133 132 131 116 116 117 113 113 116 111 67 66 61 56 53 50 51 55 57 57 56 58 52
52 67 69 69 80 79 84 81 39 89 93 99 98 115 112 110 118 116 118 135 131 117 121 114 113 108 111 115 118 76 68 65 63 56 50 48 50 50 54 56 56 58 56 43
75 74 77 37 80 84 86 86 85 93 101 98 111 111 98 121 114 127 129 133 121 118 116 110 109 112 114 91 75 69 66 63 58 52 45 46 46 50 52 54 57 60 47 42
Wind_Direction
257 268 270 275 278 279 280 271 289 293 295 299 286 286 283 288 292 289 289 292 291 290 289 293 289 301 299 294 296 300 300 300 299 300 298 298 300 296 301 301 302 288 301 294
269 272 274 275 274 278 278 286 292 293 293 281 279 286 299 297 290 286 284 288 288 286 290 292 293 294 297 300 298 302 303 298 296 303 296 297 302 303 306 303 299 306 291 295
272 274 269 277 272 275 279 289 291 296 300 286 289 290 288 285 285 285 288 289 291 295 295 291 297 301 293 307 304 325 302 300 302 301 302 305 307 301 307 299 299 301 296 303
271 263 273 273 269 277 278 289 296 302 283 283 284 288 295 299 300 306 305 299 296 298 293 301 304 305 299 303 316 308 306 304 309 310 308 311 308 305 302 305 304 302 302 299
249 265 263 266 264 270 277 285 306 301 292 295 296 296 300 308 315 310 306 304 306 306 305 307 305 309 310 305 312 310 312 312 308 314 308 303 306 306 302 299 300 299 298 297
267 261 249 262 265 270 279 294 309 302 299 299 294 297 302 307 311 307 304 304 305 306 308 316 310 308 307 310 310 308 308 307 317 313 301 302 309 303 301 299 299 298 297 296
268 265 255 249 271 273 281 293 292 299 306 299 297 302 300 306 309 308 306 311 309 308 309 308 311 307 305 304 305 305 312 315 307 306 309 305 305 303 301 298 297 299 298 301
281 266 267 262 260 270 275 281 286 287 297 303 295 300 303 310 311 306 307 303 300 308 297 320 298 310 307 298 308 300 307 307 308 307 306 305 313 302 301 300 301 303 306 305
298 284 283 270 257 260 270 284 283 290 299 305 303 308 307 307 301 294 294 309 294 298 307 311 308 308 308 310 307 308 309 310 306 303 302 302 306 302 310 311 315 311 309 306
323 306 296 303 274 263 281 287 292 297 303 307 305 302 297 296 300 304 313 316 314 314 312 313 308 304 310 310 303 306 305 302 302 302 304 304 306 315 310 307 311 313 311 307
315 299 298 289 283 285 285 290 293 299 295 298 309 299 314 309 309 312 316 315 311 311 314 310 310 309 312 311 307 311 317 306 305 307 306 307 310 314 310 311 311 309 304 303
320 318 313 300 290 286 290 295 302 309 305 302 305 305 303 309 308 311 314 314 312 310 312 306 306 309 307 309 309 308 308 310 310 306 313 313 313 312 312 309 309 303 304 303
305 306 304 305 306 292 301 310 295 301 305 298 306 304 304 309 310 312 311 310 307 306 306 308 309 309 311 309 309 310 308 311 313 314 313 313 312 312 313 309 301 302 303 303
298 299 296 297 300 298 300 305 296 297 302 302 303 302 307 305 305 305 303 305 308 308 308 309 308 309 312 314 314 313 315 315 314 313 313 313 312 311 305 303 303 303 303 306
296 295 300 297 300 300 302 284 300 297 300 303 297 298 303 303 304 304 306 305 308 310 310 310 312 312 313 309 310 315 314 313 314 313 311 310 310 306 305 305 305 305 306 308
300 303 303 300 303 300 300 306 309 304 307 303 307 303 303 304 304 304 315 309 311 310 309 313 314 310 305 312 310 310 315 313 312 311 311 310 308 307 307 308 306 309 312 310
293 296 299 298 301 303 302 299 308 307 305 306 305 303 304 307 307 308 312 310 309 313 315 315 312 313 313 314 313 315 312 311 311 313 312 311 310 310 310 308 311 313 311 308
292 292 293 294 299 301 298 309 309 308 306 307 305 307 314 306 318 309 309 310 313 311 314 310 313 312 311 313 313 312 312 313 313 313 311 312 311 311 312 313 313 312 309 307
294 293 283 292 297 297 299 304 303 306 306 304 303 310 321 307 311 311 310 312 310 312 310 311 312 311 312 311 311 311 315 313 314 314 313 314 313 313 315 313 310 309 307 306
291 296 296 300 303 302 301 301 305 303 300 301 304 311 312 310 311 306 307 310 309 310 312 310 311 310 311 310 313 314 313 315 314 316 314 314 315 315 314 313 312 311 310 308
297 303 302 302 304 301 302 300 302 307 301 299 310 308 310 308 309 308 310 310 311 310 310 311 312 312 314 313 313 314 315 316 316 315 315 318 317 317 315 315 315 314 312 312
294 299 301 302 301 299 299 303 306 306 311 311 303 309 307 306 311 310 310 310 312 312 312 313 315 314 313 314 315 316 317 316 315 315 318 318 317 316 316 318 318 316 316 316
297 299 298 304 301 301 304 309 310 306 308 307 306 307 311 312 325 313 310 311 312 312 314 315 316 316 316 316 316 316 316 315 319 319 318 317 316 318 319 319 319 321 320 319
294 298 302 302 311 308 301 304 302 303 300 306 308 310 310 310 310 312 312 312 313 314 314 316 317 316 315 315 316 315 314 319 318 318 318 317 318 320 319 321 322 323 323 326
297 295 301 298 307 307 307 304 311 304 306 309 310 310 309 311 311 311 312 315 315 313 316 315 314 317 317 315 313 316 317 318 319 319 318 319 320 321 322 324 325 328 330 334
300 300 303 319 303 303 303 302 300 305 307 308 308 309 314 310 312 313 314 316 317 317 318 314 315 315 315 313 314 314 314 316 318 318 318 319 322 323 326 327 329 332 334 336